When you browse on this site, cookies collect data to enhance your experience and personalize the content and advertising you see.
Visit our Privacy Policy to learn more. By continuing to use the site, you agree to this use of cookies and data.
  • In Latvia
  • List of Countries
  • For 7 days
  • Water Temperature
  • Weather Map
  • Weather Widgets
  • user-avatar
    Login

    Hourly Weather Langenthal

    Today, 19 September, Thursday

    Time Temperature Precipitation Wind Pressure Humidity
    00:00 +9°C° 0 mm 2 mps 721 mmHg 78%
    01:00 +8°C° 0 mm 2 mps 721 mmHg 81%
    02:00 +8°C° 0 mm 2 mps 721 mmHg 83%
    03:00 +7°C° 0 mm 2 mps 720 mmHg 85%
    04:00 +7°C° 0 mm 2 mps 720 mmHg 87%
    05:00 +7°C° 0 mm 2 mps 720 mmHg 86%
    06:00 +7°C° 0 mm 2 mps 721 mmHg 86%
    07:00 +7°C° 0 mm 2 mps 721 mmHg 85%
    08:00 +9°C° 0 mm 3 mps 721 mmHg 76%
    09:00 +11°C° 0 mm 3 mps 721 mmHg 67%
    10:00 +13°C° 0 mm 4 mps 722 mmHg 59%
    11:00 +14°C° 0 mm 5 mps 722 mmHg 55%
    12:00 +15°C° 0 mm 5 mps 722 mmHg 51%
    13:00 +16°C° 0 mm 5 mps 722 mmHg 47%
    14:00 +16°C° 0 mm 5 mps 722 mmHg 47%
    15:00 +16°C° 0 mm 5 mps 722 mmHg 48%
    16:00 +16°C° 0 mm 5 mps 722 mmHg 49%
    17:00 +14°C° 0 mm 4 mps 722 mmHg 55%
    18:00 +12°C° 0 mm 4 mps 722 mmHg 61%
    19:00 +11°C° 0 mm 3 mps 722 mmHg 68%
    20:00 +10°C° 0 mm 3 mps 722 mmHg 71%
    21:00 +9°C° 0 mm 3 mps 722 mmHg 74%
    22:00 +8°C° 0 mm 2 mps 722 mmHg 77%
    23:00 +7°C° 0 mm 2 mps 722 mmHg 79%

    Tomorrow, 20 September, Friday

    Time Temperature Precipitation Wind Pressure Humidity
    00:00 +6°C° 0 mm 2 mps 722 mmHg 81%
    01:00 +7°C° 0 mm 1 mps 722 mmHg 83%
    02:00 +6°C° 0 mm 1 mps 722 mmHg 84%
    03:00 +6°C° 0 mm 1 mps 722 mmHg 85%
    04:00 +5°C° 0 mm 1 mps 721 mmHg 85%
    05:00 +6°C° 0 mm 1 mps 721 mmHg 85%
    06:00 +6°C° 0 mm 1 mps 721 mmHg 85%
    07:00 +6°C° 0 mm 1 mps 721 mmHg 85%
    08:00 +8°C° 0 mm 1 mps 721 mmHg 77%
    09:00 +10°C° 0 mm 2 mps 722 mmHg 68%
    10:00 +13°C° 0 mm 2 mps 722 mmHg 60%
    11:00 +15°C° 0 mm 2 mps 722 mmHg 56%
    12:00 +16°C° 0 mm 2 mps 721 mmHg 53%
    13:00 +18°C° 0 mm 3 mps 721 mmHg 49%
    14:00 +18°C° 0 mm 3 mps 721 mmHg 50%
    15:00 +18°C° 0 mm 3 mps 721 mmHg 50%
    16:00 +19°C° 0 mm 3 mps 720 mmHg 51%
    17:00 +16°C° 0 mm 2 mps 720 mmHg 60%
    18:00 +14°C° 0 mm 2 mps 720 mmHg 70%
    19:00 +12°C° 0 mm 2 mps 720 mmHg 79%
    20:00 +11°C° 0 mm 1 mps 720 mmHg 83%
    21:00 +10°C° 0 mm 1 mps 720 mmHg 86%
    22:00 +10°C° 0 mm 1 mps 720 mmHg 89%
    23:00 +9°C° 0 mm 1 mps 720 mmHg 90%

    Day after tomorrow, 21 September, Saturday

    Time Temperature Precipitation Wind Pressure Humidity
    00:00 +9°C° 0 mm 1 mps 719 mmHg 91%
    01:00 +9°C° 0 mm 1 mps 719 mmHg 92%
    02:00 +8°C° 0 mm 0 mps 719 mmHg 92%
    03:00 +8°C° 0 mm 0 mps 719 mmHg 93%
    04:00 +7°C° 0 mm 0 mps 719 mmHg 93%
    05:00 +8°C° 0 mm 0 mps 719 mmHg 92%
    06:00 +8°C° 0 mm 0 mps 718 mmHg 91%
    07:00 +8°C° 0 mm 0 mps 718 mmHg 91%
    08:00 +12°C° 0 mm 1 mps 718 mmHg 81%
    09:00 +16°C° 0 mm 1 mps 719 mmHg 71%
    10:00 +20°C° 0 mm 1 mps 719 mmHg 61%
    11:00 +21°C° 0 mm 1 mps 719 mmHg 56%
    12:00 +23°C° 0 mm 1 mps 718 mmHg 52%
    13:00 +25°C° 0 mm 2 mps 718 mmHg 47%
    14:00 +25°C° 0 mm 2 mps 718 mmHg 48%
    15:00 +25°C° 0 mm 2 mps 717 mmHg 50%
    16:00 +25°C° 0 mm 2 mps 716 mmHg 51%
    17:00 +21°C° 0 mm 2 mps 716 mmHg 61%
    18:00 +19°C° 0 mm 1 mps 716 mmHg 71%
    19:00 +16°C° 0 mm 1 mps 716 mmHg 81%
    20:00 +15°C° 0 mm 1 mps 716 mmHg 81%
    21:00 +15°C° 0 mm 1 mps 716 mmHg 82%
    22:00 +15°C° 0 mm 1 mps 716 mmHg 82%
    23:00 +15°C° 0 mm 1 mps 716 mmHg 81%

    22 September, Sunday

    Time Temperature Precipitation Wind Pressure Humidity
    00:00 +15°C° 0 mm 1 mps 716 mmHg 80%
    01:00 +15°C° 0 mm 1 mps 715 mmHg 78%
    02:00 +15°C° 0 mm 1 mps 715 mmHg 77%
    03:00 +15°C° 0 mm 1 mps 715 mmHg 76%
    04:00 +15°C° 0 mm 1 mps 715 mmHg 75%
    05:00 +15°C° 0 mm 1 mps 715 mmHg 76%
    06:00 +15°C° 0 mm 1 mps 714 mmHg 78%
    07:00 +13°C° 0 mm 0 mps 714 mmHg 79%
    08:00 +15°C° 0 mm 0 mps 714 mmHg 72%
    09:00 +18°C° 0 mm 0 mps 714 mmHg 64%
    10:00 +20°C° 0 mm 0 mps 714 mmHg 57%
    11:00 +21°C° 0 mm 0 mps 714 mmHg 53%
    12:00 +25°C° 0 mm 1 mps 714 mmHg 49%
    13:00 +27°C° 0 mm 1 mps 714 mmHg 44%
    14:00 +26°C° 0 mm 1 mps 714 mmHg 47%
    15:00 +26°C° 0 mm 1 mps 713 mmHg 50%
    16:00 +25°C° 0 mm 1 mps 713 mmHg 52%
    17:00 +21°C° 0.5 mm 2 mps 713 mmHg 65%
    18:00 +19°C° 0.5 mm 3 mps 714 mmHg 78%
    19:00 +15°C° 0.5 mm 4 mps 714 mmHg 91%
    20:00 +14°C° 1 mm 4 mps 715 mmHg 93%
    21:00 +13°C° 1 mm 4 mps 715 mmHg 94%
    22:00 +12°C° 1 mm 3 mps 716 mmHg 95%
    23:00 +12°C° 0.6 mm 3 mps 716 mmHg 95%

    23 September, Monday

    Time Temperature Precipitation Wind Pressure Humidity
    00:00 +13°C° 0.6 mm 2 mps 716 mmHg 95%
    01:00 +13°C° 0.6 mm 2 mps 716 mmHg 95%
    02:00 +12°C° 0.1 mm 1 mps 716 mmHg 95%
    03:00 +12°C° 0.1 mm 1 mps 716 mmHg 95%
    04:00 +12°C° 0.1 mm 1 mps 716 mmHg 94%
    05:00 +12°C° 0.1 mm 1 mps 717 mmHg 94%
    06:00 +11°C° 0.1 mm 1 mps 717 mmHg 95%
    07:00 +11°C° 0.1 mm 1 mps 717 mmHg 95%
    08:00 +12°C° 0 mm 1 mps 717 mmHg 90%
    09:00 +14°C° 0 mm 2 mps 717 mmHg 85%
    10:00 +15°C° 0 mm 2 mps 718 mmHg 79%
    11:00 +17°C° 0.1 mm 3 mps 718 mmHg 71%
    12:00 +18°C° 0.1 mm 3 mps 717 mmHg 63%
    13:00 +19°C° 0.1 mm 3 mps 717 mmHg 54%
    14:00 +19°C° 0 mm 3 mps 717 mmHg 53%
    15:00 +19°C° 0 mm 3 mps 717 mmHg 52%
    16:00 +19°C° 0 mm 3 mps 717 mmHg 51%
    17:00 +17°C° 0 mm 2 mps 717 mmHg 61%
    18:00 +15°C° 0 mm 1 mps 717 mmHg 70%
    19:00 +13°C° 0 mm 1 mps 717 mmHg 79%
    20:00 +13°C° 0 mm 1 mps 717 mmHg 79%
    21:00 +13°C° 0 mm 1 mps 717 mmHg 78%
    22:00 +13°C° 0 mm 1 mps 717 mmHg 77%
    23:00 +13°C° 0.1 mm 1 mps 717 mmHg 79%

    24 September, Tuesday

    Time Temperature Precipitation Wind Pressure Humidity
    00:00 +13°C° 0.1 mm 1 mps 717 mmHg 81%
    01:00 +13°C° 0.1 mm 1 mps 717 mmHg 83%
    02:00 +13°C° 0 mm 1 mps 717 mmHg 84%
    03:00 +13°C° 0 mm 1 mps 717 mmHg 84%
    04:00 +13°C° 0 mm 1 mps 717 mmHg 85%
    05:00 +13°C° 0 mm 1 mps 717 mmHg 85%
    06:00 +13°C° 0 mm 1 mps 717 mmHg 84%
    07:00 +13°C° 0 mm 1 mps 717 mmHg 84%
    08:00 +15°C° 0 mm 1 mps 717 mmHg 78%
    09:00 +17°C° 0 mm 2 mps 717 mmHg 71%
    10:00 +18°C° 0 mm 2 mps 718 mmHg 65%
    11:00 +18°C° 0 mm 2 mps 717 mmHg 67%
    12:00 +19°C° 0 mm 1 mps 717 mmHg 70%
    13:00 +19°C° 0 mm 1 mps 717 mmHg 72%
    14:00 +19°C° 0 mm 1 mps 717 mmHg 72%
    15:00 +20°C° 0 mm 1 mps 716 mmHg 72%
    16:00 +20°C° 0 mm 1 mps 716 mmHg 71%
    17:00 +19°C° 0 mm 1 mps 716 mmHg 72%
    18:00 +19°C° 0 mm 1 mps 716 mmHg 73%
    19:00 +18°C° 0 mm 1 mps 716 mmHg 74%
    20:00 +18°C° 0 mm 1 mps 716 mmHg 76%
    21:00 +16°C° 0 mm 1 mps 716 mmHg 78%
    22:00 +15°C° 0 mm 1 mps 716 mmHg 80%
    23:00 +15°C° 0 mm 1 mps 715 mmHg 80%
    Show more